Terug naar catalogus

FENGYUN 1C DEB

ActiefSSO
NORAD 31371·DEBRIS·🇨🇳 China

Gelanceerd May 10, 1999 vanaf Taiyuan Satellite Launch Center

Loading…

Volgende Passages (komende 24 uur)

TLE

VersSource: Space-Track

Epoch: Sep 13, 2026, 08:14 UTC

1 31371U 99025BSB 26256.34331311  .00000594  00000-0  38384-3 0  9997
2 31371  98.7428 284.6395 0077691 195.4104 164.4698 14.05099059996022

Volg FENGYUN 1C DEB in realtime met AllMySat

Download on the App Store